DW4236 Weather Reports


time (UTC)temp
F
wind
direction
speed
knots
gust
knots
rain 1hr
in
rain 24hr
in
rain mn
in
humidity
%
barometer
mb
20260508094604 43 303 0.9 5.2 0.00 0.06 0.06 92 1013.2
20260508094105 43 306 0.9 2.6 0.00 0.06 0.06 91 1013.2
20260508093604 43 308 1.7 2.6 0.00 0.06 0.06 91 1013.1
20260508093104 43 314 1.7 5.2 0.00 0.06 0.06 91 1013.1
20260508092103 43 294 0.0 2.6 0.00 0.06 0.06 91 1013.2
20260508091604 43 311 0.9 2.6 0.00 0.06 0.06 91 1013.1
20260508091105 43 303 0.0 2.6 0.00 0.06 0.06 91 1013.0
20260508090603 43 302 0.0 1.7 0.00 0.06 0.06 91 1013.0
20260508090104 43 302 0.9 2.6 0.00 0.06 0.06 90 1012.8
20260508085604 43 302 0.0 1.7 0.00 0.06 0.06 91 1012.8
20260508085104 44 302 0.0 0.0 0.00 0.06 0.06 90 1012.8
20260508083604 44 302 0.0 0.0 0.00 0.06 0.06 90 1012.7
20260508082604 44 302 0.0 0.0 0.00 0.06 0.06 90 1012.7
20260508082104 44 302 0.0 0.0 0.00 0.06 0.06 90 1012.7
20260508081605 45 302 0.0 0.9 0.00 0.06 0.06 90 1012.8
20260508080604 45 299 0.0 0.9 0.00 0.06 0.06 90 1012.8
20260508080104 45 299 0.0 1.7 0.00 0.06 0.06 89 1012.7
20260508075603 45 299 0.0 0.0 0.00 0.06 0.06 89 1012.7
20260508075105 45 299 0.0 2.6 0.00 0.06 0.06 89 1012.8
20260508074605 45 289 0.9 2.6 0.00 0.06 0.06 89 1012.9
20260508074103 45 297 0.9 2.6 0.00 0.07 0.06 89 1012.8
20260508073603 45 297 0.0 2.6 0.00 0.07 0.06 89 1012.8
20260508073103 45 297 1.7 2.6 0.00 0.07 0.06 89 1012.8
20260508072604 45 297 1.7 2.6 0.00 0.07 0.06 89 1012.7
20260508071604 45 267 0.0 2.6 0.00 0.07 0.06 89 1012.9
20260508071104 45 297 1.7 2.6 0.00 0.07 0.06 88 1013.0
20260508070604 45 317 0.9 2.6 0.00 0.07 0.06 88 1013.2
20260508070104 46 335 0.9 2.6 0.01 0.07 0.06 88 1013.1
20260508065604 46 308 0.9 2.6 0.01 0.08 0.06 88 1012.9
20260508065104 46 305 0.0 0.9 0.02 0.08 0.06 87 1012.7
20260508064604 46 305 0.0 1.7 0.02 0.08 0.06 87 1012.6
20260508064104 46 305 0.0 0.0 0.02 0.08 0.06 87 1012.6
20260508063604 46 305 0.9 1.7 0.03 0.08 0.06 86 1012.9
20260508062604 46 319 0.9 2.6 0.04 0.08 0.06 85 1013.1
20260508061604 46 299 0.0 2.6 0.05 0.09 0.06 85 1013.1
20260508060604 46 344 0.9 6.1 0.05 0.09 0.06 84 1013.2
20260508060105 47 1 0.0 1.7 0.05 0.08 0.05 84 1013.3
20260508055604 47 355 0.0 0.0 0.05 0.08 0.05 83 1013.3
20260508055105 47 1 0.0 0.0 0.04 0.07 0.04 83 1013.3
20260508054604 47 327 0.0 0.0 0.04 0.08 0.04 83 1013.1
20260508053604 47 308 0.0 0.0 0.03 0.07 0.03 82 1012.6
20260508053105 47 20 0.0 0.0 0.02 0.06 0.02 81 1011.9
20260508052604 48 99 0.0 0.0 0.02 0.06 0.02 80 1011.6
20260508052104 48 103 0.0 0.0 0.01 0.05 0.01 78 1011.7
20260508051604 48 103 0.0 0.0 0.01 0.05 0.01 77 1011.5
20260508051103 48 103 0.0 0.0 0.01 0.05 0.01 76 1011.6
20260508050604 49 104 0.0 0.0 0.01 0.05 0.01 76 1011.6
20260508050104 48 104 0.0 0.0 0.00 0.04 0.00 75 1011.6
20260508045604 48 104 0.0 0.0 0.00 0.04 0.00 74 1011.5
20260508045103 48 104 0.0 0.0 0.00 0.04 0.00 74 1011.4
20260508044604 48 104 0.0 0.0 0.00 0.04 0.00 74 1011.4
20260508043604 48 104 0.0 0.0 0.00 0.04 0.00 74 1011.3
20260508043104 48 104 0.0 0.0 0.00 0.04 0.00 75 1011.2
20260508042104 48 90 0.0 0.0 0.00 0.04 0.00 76 1011.2
20260508041604 48 90 0.0 0.0 0.00 0.04 0.00 76 1011.1
20260508040604 47 36 0.0 0.0 0.00 0.04 0.00 78 1011.1
20260508040105 47 29 0.0 0.0 0.00 0.04 0.00 77 1011.2
20260508035604 47 29 0.0 0.0 0.00 0.04 0.04 77 1011.2
20260508034605 47 29 0.0 0.0 0.00 0.04 0.04 76 1011.2
20260508034104 46 29 0.0 0.0 0.00 0.04 0.04 76 1011.2
20260508033604 46 29 0.0 0.0 0.00 0.04 0.04 76 1011.2
20260508033104 46 29 0.0 0.0 0.00 0.04 0.04 76 1011.3
20260508032604 46 29 0.0 0.0 0.00 0.04 0.04 76 1011.4
20260508032104 46 29 0.0 0.0 0.00 0.04 0.04 75 1011.3
20260508031604 46 29 0.0 0.0 0.00 0.04 0.04 74 1011.3
20260508031104 47 29 0.0 0.0 0.00 0.04 0.04 74 1011.2
20260508030605 47 29 0.0 0.0 0.00 0.04 0.04 73 1011.3
20260508025604 47 29 0.0 0.0 0.00 0.04 0.04 73 1011.4
20260508025104 47 29 0.0 0.0 0.00 0.04 0.04 73 1011.3
20260508024604 47 29 0.0 0.0 0.00 0.04 0.04 72 1011.2
20260508024103 48 29 0.0 0.0 0.00 0.04 0.04 72 1011.2
20260508023604 48 29 0.0 0.0 0.00 0.04 0.04 72 1011.1
20260508022604 48 29 0.0 0.0 0.00 0.04 0.04 72 1011.2
20260508022103 48 29 0.0 0.0 0.00 0.04 0.04 71 1011.2
20260508021604 48 29 0.0 0.0 0.00 0.04 0.04 70 1011.2
20260508021104 49 35 0.0 0.0 0.00 0.04 0.04 68 1011.0
20260508020603 49 35 0.0 7.0 0.00 0.04 0.04 67 1010.9
20260508020104 48 36 0.0 4.3 0.00 0.04 0.04 70 1010.9
20260508015604 48 54 0.0 2.6 0.00 0.04 0.04 70 1010.9
20260508015103 49 45 0.0 1.7 0.00 0.04 0.04 68 1010.8
20260508014604 49 45 0.0 0.0 0.00 0.04 0.04 67 1010.7
20260508013104 50 45 0.0 0.9 0.00 0.04 0.04 63 1010.5
20260508012604 50 45 0.0 0.0 0.00 0.04 0.04 64 1010.5
20260508012104 50 45 0.0 0.0 0.00 0.04 0.04 63 1010.5
20260508011604 50 45 0.0 0.0 0.00 0.04 0.04 62 1010.6
20260508011104 51 45 0.0 0.0 0.00 0.04 0.04 62 1010.5
20260508010104 51 45 0.0 0.0 0.00 0.04 0.04 60 1010.4
20260508005605 51 45 0.0 0.0 0.00 0.04 0.04 61 1010.3
20260508005103 52 45 0.0 0.0 0.00 0.04 0.04 60 1010.2
20260508004605 52 45 0.0 0.0 0.00 0.04 0.04 59 1010.3
20260508004104 52 45 0.0 0.0 0.00 0.04 0.04 58 1010.3
20260508003604 53 45 0.0 0.0 0.00 0.04 0.04 56 1010.1
20260508002605 53 45 0.0 0.0 0.00 0.04 0.04 55 1010.0
20260508001104 55 45 0.0 1.7 0.00 0.04 0.04 51 1009.9
20260508000104 56 18 0.0 0.9 0.00 0.04 0.04 49 1009.7
20260507235604 56 18 0.0 0.9 0.00 0.04 0.04 48 1009.7
20260507234603 57 18 0.0 0.0 0.00 0.04 0.04 45 1009.8
20260507234104 58 18 0.0 0.0 0.00 0.04 0.04 45 1009.7
20260507233603 58 18 0.0 1.7 0.00 0.04 0.04 42 1009.6
20260507233103 58 18 0.9 2.6 0.00 0.04 0.04 42 1009.7
20260507232604 59 26 0.0 2.6 0.00 0.04 0.04 42 1009.5
20260507232104 59 25 1.7 4.3 0.00 0.04 0.04 40 1009.3
20260507231604 59 40 1.7 4.3 0.00 0.04 0.04 40 1009.3
20260507231104 59 97 2.6 8.7 0.00 0.04 0.04 39 1009.3
20260507230604 59 38 1.7 7.8 0.00 0.04 0.04 40 1009.4
20260507230104 60 15 1.7 7.8 0.00 0.04 0.04 39 1009.3
20260507225604 60 53 1.7 10.4 0.00 0.04 0.04 39 1009.3
20260507225104 60 37 2.6 10.4 0.00 0.04 0.04 38 1009.3
20260507224603 60 13 2.6 7.0 0.00 0.04 0.04 39 1009.2
20260507224105 60 325 1.7 4.3 0.00 0.04 0.04 39 1009.4
20260507223603 60 358 1.7 8.7 0.00 0.04 0.04 38 1009.3
20260507222604 60 8 1.7 7.8 0.00 0.04 0.04 39 1009.5
20260507222104 61 348 1.7 7.8 0.00 0.04 0.04 39 1009.5
20260507221104 61 16 6.1 13.0 0.00 0.04 0.04 37 1009.4
20260507220603 61 22 1.7 7.0 0.00 0.04 0.04 40 1009.4
20260507220104 61 346 2.6 8.7 0.00 0.04 0.04 39 1009.4
20260507215604 61 30 1.7 7.8 0.00 0.04 0.04 40 1009.5
20260507215104 61 25 2.6 7.0 0.00 0.04 0.04 38 1009.5
20260507214604 61 15 1.7 7.8 0.00 0.04 0.04 39 1009.6
20260507213604 61 329 2.6 5.2 0.00 0.04 0.04 38 1009.3
20260507212603 62 73 2.6 12.2 0.00 0.04 0.04 37 1009.3
20260507212103 62 17 4.3 12.2 0.00 0.04 0.04 38 1009.2
20260507211603 61 17 4.3 7.8 0.00 0.04 0.04 38 1009.2
20260507211103 62 43 4.3 11.3 0.00 0.04 0.04 36 1009.1
20260507205603 63 34 4.3 10.4 0.00 0.04 0.04 38 1009.0
20260507205104 62 51 3.5 8.7 0.00 0.04 0.04 37 1008.9
20260507203605 64 338 6.1 13.0 0.00 0.04 0.04 35 1008.9
20260507203104 64 23 4.3 10.4 0.00 0.04 0.04 36 1008.9
20260507202604 64 63 2.6 10.4 0.00 0.04 0.04 37 1009.0
20260507202104 64 358 2.6 10.4 0.00 0.04 0.04 36 1009.0
20260507201603 64 344 4.3 13.0 0.00 0.04 0.04 37 1008.8
20260507200603 65 24 1.7 7.8 0.00 0.04 0.04 39 1009.0
20260507195604 63 41 5.2 10.4 0.00 0.04 0.04 39 1009.1
20260507195104 63 19 3.5 7.8 0.00 0.04 0.04 38 1009.1
20260507194604 64 318 4.3 7.8 0.00 0.05 0.04 37 1009.2
20260507194104 64 27 4.3 10.4 0.00 0.05 0.04 38 1009.3
20260507193103 65 16 2.6 5.2 0.00 0.05 0.04 40 1009.4
20260507191104 62 50 2.6 7.8 0.00 0.05 0.04 38 1009.5
20260507190604 63 325 5.2 10.4 0.00 0.05 0.04 38 1009.7
20260507190105 63 354 4.3 8.7 0.00 0.05 0.04 40 1009.8
20260507185103 63 4 5.2 14.8 0.00 0.05 0.04 39 1009.8
20260507184103 62 251 1.7 10.4 0.00 0.05 0.04 39 1010.0
20260507183103 63 340 5.2 10.4 0.00 0.05 0.04 37 1010.0
20260507182603 63 24 4.3 11.3 0.00 0.05 0.04 39 1010.2
20260507182104 61 337 1.7 7.0 0.00 0.05 0.04 42 1010.1
20260507181604 63 2 4.3 7.8 0.00 0.05 0.04 41 1010.3
20260507181104 63 42 4.3 10.4 0.00 0.05 0.04 40 1010.3
20260507180103 63 327 3.5 10.4 0.00 0.05 0.04 40 1010.3
20260507175604 63 356 3.5 10.4 0.00 0.06 0.04 40 1010.3
20260507175103 63 319 3.5 10.4 0.00 0.06 0.04 40 1010.4
20260507174104 62 49 4.3 10.4 0.00 0.07 0.04 41 1010.4
20260507172603 62 13 2.6 7.8 0.00 0.07 0.04 41 1010.6
20260507172104 62 5 2.6 10.4 0.00 0.07 0.04 40 1010.7
20260507171603 61 339 5.2 11.3 0.00 0.07 0.04 40 1010.8
20260507171104 61 347 3.5 10.4 0.00 0.07 0.04 44 1010.7
20260507170604 61 0 4.3 10.4 0.00 0.07 0.04 43 1010.8
20260507170104 62 354 3.5 10.4 0.00 0.07 0.04 40 1010.9
20260507165603 62 355 4.3 10.4 0.00 0.08 0.04 45 1010.8
20260507165104 61 310 4.3 10.4 0.00 0.08 0.04 40 1011.0
20260507164603 61 43 2.6 8.7 0.00 0.08 0.04 44 1011.1
20260507163603 60 28 2.6 10.4 0.00 0.08 0.04 46 1011.2
20260507163103 59 346 4.3 11.3 0.00 0.09 0.04 46 1011.3
20260507162604 60 358 3.5 8.7 0.00 0.09 0.04 44 1011.4
20260507162103 60 58 3.5 7.8 0.00 0.10 0.04 49 1011.4
20260507160604 60 23 3.5 7.8 0.00 0.11 0.04 46 1011.7
20260507160104 59 306 0.9 5.2 0.00 0.11 0.04 45 1011.7
20260507155603 59 29 2.6 6.1 0.00 0.11 0.04 44 1011.9
20260507155103 59 292 1.7 8.7 0.00 0.12 0.04 46 1012.0
20260507154604 59 329 3.5 7.0 0.00 0.12 0.04 43 1012.2
20260507154104 59 44 6.1 10.4 0.00 0.12 0.04 46 1012.2
20260507153604 59 62 2.6 8.7 0.00 0.12 0.04 48 1012.2
20260507153103 58 40 0.0 2.6 0.00 0.12 0.04 48 1012.2
20260507152604 58 25 3.5 7.8 0.00 0.12 0.04 48 1012.5
20260507152104 58 16 2.6 5.2 0.00 0.12 0.04 46 1012.4
20260507151603 58 344 3.5 10.4 0.00 0.12 0.04 46 1012.5
20260507151104 58 18 2.6 7.0 0.00 0.12 0.04 49 1012.4
20260507150105 57 58 6.1 12.2 0.00 0.12 0.04 46 1012.4
20260507145605 57 108 6.1 10.4 0.00 0.12 0.04 44 1012.4
20260507145106 58 144 4.3 11.3 0.00 0.12 0.04 45 1012.5
20260507144604 58 87 4.3 7.0 0.00 0.12 0.04 49 1012.5
20260507144105 57 313 1.7 2.6 0.00 0.12 0.04 47 1012.5
20260507143605 57 75 1.7 7.0 0.00 0.12 0.04 46 1012.6
20260507143104 57 313 3.5 6.1 0.00 0.12 0.04 47 1012.7
20260507142105 56 58 4.3 10.4 0.00 0.12 0.04 46 1012.7
20260507141605 56 39 2.6 10.4 0.00 0.12 0.04 45 1012.7
20260507140106 56 357 5.2 8.7 0.00 0.12 0.04 46 1013.0
20260507135105 55 60 5.2 10.4 0.00 0.12 0.04 46 1012.9
20260507134605 55 68 5.2 11.3 0.00 0.12 0.04 48 1012.9
20260507134106 54 69 5.2 13.0 0.00 0.12 0.04 48 1013.0
20260507133605 55 25 6.1 13.9 0.00 0.12 0.04 46 1013.0
20260507133105 55 52 5.2 11.3 0.00 0.12 0.04 48 1012.8
20260507132606 55 73 2.6 14.8 0.00 0.12 0.04 50 1012.8
20260507132105 54 33 1.7 7.0 0.00 0.12 0.04 54 1012.9
20260507131605 55 35 1.7 7.0 0.00 0.12 0.04 57 1012.8
20260507131105 54 38 1.7 7.8 0.00 0.12 0.04 61 1012.8
20260507130606 54 122 4.3 7.0 0.00 0.12 0.04 61 1012.7
20260507130105 54 358 0.9 7.0 0.00 0.12 0.04 65 1012.6
20260507125604 53 10 1.7 7.0 0.00 0.12 0.04 66 1012.6
20260507125106 53 70 0.9 7.0 0.00 0.12 0.04 67 1012.5
20260507124605 53 77 4.3 7.8 0.00 0.12 0.04 68 1012.5
20260507123605 52 73 5.2 10.4 0.00 0.12 0.04 70 1012.4
20260507123106 52 90 4.3 10.4 0.00 0.12 0.04 72 1012.4
20260507122605 51 63 5.2 10.4 0.00 0.12 0.04 74 1012.4
20260507121605 50 107 5.2 10.4 0.00 0.12 0.04 80 1012.4
20260507121105 50 71 4.3 10.4 0.00 0.12 0.04 85 1012.4
20260507120606 49 1 1.7 6.1 0.00 0.12 0.04 87 1012.3
20260507120104 49 48 0.0 1.7 0.00 0.12 0.04 87 1012.4
20260507115604 49 51 0.0 0.9 0.00 0.12 0.04 88 1012.4
20260507114604 50 25 0.0 1.7 0.00 0.12 0.04 89 1012.3
20260507114105 50 47 1.7 6.1 0.00 0.12 0.04 90 1012.2
20260507113605 50 356 0.9 2.6 0.00 0.12 0.04 90 1012.1
20260507113105 49 358 0.0 2.6 0.00 0.12 0.04 91 1012.1
20260507112604 49 3 0.0 0.0 0.00 0.12 0.04 91 1012.1
20260507112105 49 3 0.0 0.0 0.00 0.12 0.04 91 1012.2
20260507111606 49 3 0.0 0.0 0.00 0.12 0.04 91 1012.1
20260507111104 48 3 0.0 1.7 0.00 0.12 0.04 91 1012.0
20260507110605 48 0 0.0 1.7 0.00 0.12 0.04 91 1011.9
20260507110105 48 359 0.0 0.9 0.00 0.12 0.04 91 1012.0
20260507105609 48 359 0.0 0.9 0.00 0.12 0.04 92 1011.8
20260507105105 48 359 0.9 1.7 0.00 0.12 0.04 92 1011.6
20260507104606 48 359 0.0 1.7 0.00 0.12 0.04 92 1011.4
20260507104106 47 359 0.9 1.7 0.00 0.12 0.04 92 1011.5
20260507103604 47 359 0.0 1.7 0.00 0.12 0.04 92 1011.3
20260507103104 47 359 0.9 1.7 0.00 0.12 0.04 91 1011.2
20260507102606 47 359 0.0 1.7 0.00 0.12 0.04 91 1011.2
20260507102105 47 359 0.0 0.9 0.00 0.12 0.04 91 1011.2
20260507101605 47 359 0.0 0.0 0.00 0.12 0.04 91 1011.2
20260507100605 47 359 0.0 0.0 0.00 0.12 0.04 91 1011.0
20260507100105 47 359 0.0 0.0 0.00 0.12 0.04 91 1010.9
20260507095105 47 359 0.0 0.0 0.00 0.12 0.04 91 1010.9